When you browse on this site, cookies collect data to enhance your experience and personalize the content and advertising you see.
Visit our Privacy Policy to learn more. By continuing to use the site, you agree to this use of cookies and data.
  • In Lithuania
  • List of Countries
  • For 7 days
  • Water Temperature
  • Satellite Maps
  • Weather Map
  • Weather Widgets
  • user-avatar
    Login

    Hourly Weather Bristol

    Today, 23 April, Tuesday

    Time Temperature Precipitation Wind Pressure Humidity
    00:00 +13°C° 0 mm 2 mps 748 mmHg 79%
    01:00 +13°C° 0 mm 2 mps 748 mmHg 79%
    02:00 +13°C° 0 mm 2 mps 747 mmHg 80%
    03:00 +13°C° 0 mm 2 mps 747 mmHg 81%
    04:00 +11°C° 0.1 mm 3 mps 747 mmHg 83%
    05:00 +11°C° 0.1 mm 3 mps 746 mmHg 85%
    06:00 +11°C° 0.1 mm 3 mps 746 mmHg 88%
    07:00 +13°C° 0 mm 3 mps 746 mmHg 84%
    08:00 +16°C° 0 mm 3 mps 746 mmHg 79%
    09:00 +19°C° 0 mm 4 mps 746 mmHg 75%
    10:00 +20°C° 0.3 mm 4 mps 746 mmHg 74%
    11:00 +21°C° 0.3 mm 4 mps 746 mmHg 72%
    12:00 +22°C° 0.3 mm 4 mps 746 mmHg 70%
    13:00 +21°C° 0.7 mm 4 mps 745 mmHg 70%
    14:00 +21°C° 0.7 mm 4 mps 745 mmHg 71%
    15:00 +21°C° 0.7 mm 4 mps 745 mmHg 71%
    16:00 +21°C° 0.2 mm 3 mps 745 mmHg 74%
    17:00 +20°C° 0.2 mm 3 mps 744 mmHg 77%
    18:00 +19°C° 0.2 mm 2 mps 744 mmHg 80%
    19:00 +18°C° 0 mm 2 mps 744 mmHg 84%
    20:00 +16°C° 0 mm 3 mps 744 mmHg 87%
    21:00 +13°C° 0 mm 3 mps 744 mmHg 91%
    22:00 +13°C° 0 mm 3 mps 744 mmHg 90%
    23:00 +12°C° 0 mm 3 mps 743 mmHg 90%

    Tomorrow, 24 April, Wednesday

    Time Temperature Precipitation Wind Pressure Humidity
    00:00 +12°C° 0 mm 3 mps 743 mmHg 90%
    01:00 +11°C° 0 mm 3 mps 743 mmHg 90%
    02:00 +11°C° 0 mm 3 mps 742 mmHg 91%
    03:00 +11°C° 0 mm 3 mps 742 mmHg 91%
    04:00 +11°C° 0.2 mm 3 mps 742 mmHg 92%
    05:00 +11°C° 0.2 mm 3 mps 742 mmHg 94%
    06:00 +12°C° 0.2 mm 3 mps 741 mmHg 95%
    07:00 +11°C° 0.4 mm 4 mps 742 mmHg 94%
    08:00 +10°C° 0.4 mm 5 mps 742 mmHg 93%
    09:00 +9°C° 0.4 mm 6 mps 743 mmHg 91%
    10:00 +10°C° 0.3 mm 6 mps 743 mmHg 87%
    11:00 +11°C° 0.3 mm 7 mps 744 mmHg 83%
    12:00 +12°C° 0.3 mm 7 mps 744 mmHg 78%
    13:00 +14°C° 0 mm 7 mps 744 mmHg 73%
    14:00 +14°C° 0 mm 7 mps 744 mmHg 68%
    15:00 +14°C° 0 mm 7 mps 745 mmHg 63%
    16:00 +14°C° 0.1 mm 6 mps 744 mmHg 67%
    17:00 +13°C° 0.1 mm 5 mps 744 mmHg 71%
    18:00 +12°C° 0.1 mm 4 mps 744 mmHg 75%
    19:00 +10°C° 0 mm 5 mps 744 mmHg 77%
    20:00 +9°C° 0 mm 5 mps 744 mmHg 79%
    21:00 +8°C° 0 mm 5 mps 744 mmHg 80%
    22:00 +8°C° 0.1 mm 5 mps 744 mmHg 82%
    23:00 +8°C° 0.1 mm 6 mps 744 mmHg 84%

    Day after tomorrow, 25 April, Thursday

    Time Temperature Precipitation Wind Pressure Humidity
    00:00 +8°C° 0.1 mm 6 mps 743 mmHg 86%
    01:00 +8°C° 0.8 mm 6 mps 743 mmHg 88%
    02:00 +8°C° 0.8 mm 5 mps 743 mmHg 90%
    03:00 +8°C° 0.8 mm 5 mps 743 mmHg 92%
    04:00 +8°C° 0 mm 5 mps 743 mmHg 93%
    05:00 +8°C° 0 mm 4 mps 743 mmHg 93%
    06:00 +8°C° 0 mm 3 mps 743 mmHg 93%
    07:00 +8°C° 0 mm 4 mps 743 mmHg 88%
    08:00 +9°C° 0 mm 5 mps 743 mmHg 84%
    09:00 +10°C° 0 mm 6 mps 744 mmHg 79%
    10:00 +10°C° 0.2 mm 7 mps 744 mmHg 76%
    11:00 +11°C° 0.2 mm 8 mps 744 mmHg 72%
    12:00 +11°C° 0.2 mm 9 mps 745 mmHg 69%
    13:00 +11°C° 0.1 mm 10 mps 745 mmHg 66%
    14:00 +11°C° 0.1 mm 10 mps 745 mmHg 64%
    15:00 +12°C° 0.1 mm 11 mps 745 mmHg 62%
    16:00 +11°C° 0.4 mm 10 mps 745 mmHg 68%
    17:00 +10°C° 0.4 mm 9 mps 746 mmHg 75%
    18:00 +9°C° 0.4 mm 8 mps 746 mmHg 81%
    19:00 +9°C° 0.2 mm 7 mps 747 mmHg 83%
    20:00 +8°C° 0.2 mm 7 mps 748 mmHg 84%
    21:00 +8°C° 0.2 mm 6 mps 749 mmHg 85%
    22:00 +8°C° 0 mm 6 mps 749 mmHg 86%
    23:00 +8°C° 0 mm 6 mps 749 mmHg 86%

    26 April, Friday

    Time Temperature Precipitation Wind Pressure Humidity
    00:00 +8°C° 0 mm 6 mps 750 mmHg 86%
    01:00 +7°C° 0 mm 6 mps 750 mmHg 87%
    02:00 +7°C° 0 mm 5 mps 750 mmHg 88%
    03:00 +7°C° 0 mm 5 mps 750 mmHg 89%
    04:00 +7°C° 0 mm 5 mps 750 mmHg 90%
    05:00 +7°C° 0 mm 5 mps 751 mmHg 91%
    06:00 +7°C° 0 mm 4 mps 751 mmHg 92%
    07:00 +10°C° 0.2 mm 4 mps 751 mmHg 90%
    08:00 +11°C° 0.2 mm 4 mps 752 mmHg 87%
    09:00 +12°C° 0.2 mm 4 mps 752 mmHg 84%
    10:00 +13°C° 0.6 mm 5 mps 753 mmHg 81%
    11:00 +14°C° 0.7 mm 6 mps 753 mmHg 78%
    12:00 +14°C° 0.7 mm 7 mps 754 mmHg 75%
    13:00 +12°C° 0.2 mm 8 mps 755 mmHg 74%
    14:00 +11°C° 0.2 mm 8 mps 755 mmHg 74%
    15:00 +10°C° 0.2 mm 8 mps 756 mmHg 73%
    16:00 +10°C° 0 mm 8 mps 757 mmHg 71%
    17:00 +9°C° 0 mm 7 mps 758 mmHg 69%
    18:00 +9°C° 0 mm 7 mps 759 mmHg 67%
    19:00 +8°C° 0 mm 6 mps 759 mmHg 67%
    20:00 +8°C° 0 mm 5 mps 760 mmHg 66%
    21:00 +7°C° 0 mm 4 mps 760 mmHg 66%
    22:00 +7°C° 0.1 mm 5 mps 760 mmHg 72%
    23:00 +7°C° 0.1 mm 6 mps 759 mmHg 79%

    27 April, Saturday

    Time Temperature Precipitation Wind Pressure Humidity
    00:00 +5°C° 0.1 mm 7 mps 758 mmHg 85%
    01:00 +6°C° 0.5 mm 8 mps 757 mmHg 84%
    02:00 +7°C° 0.5 mm 10 mps 756 mmHg 84%
    03:00 +8°C° 0.5 mm 11 mps 755 mmHg 83%
    04:00 +7°C° 0 mm 11 mps 755 mmHg 81%
    05:00 +6°C° 0 mm 11 mps 756 mmHg 78%
    06:00 +5°C° 0 mm 10 mps 756 mmHg 76%
    07:00 +4°C° 0 mm 11 mps 757 mmHg 72%
    08:00 +6°C° 0 mm 11 mps 759 mmHg 68%
    09:00 +5°C° 0 mm 12 mps 760 mmHg 64%
    10:00 +7°C° 0 mm 10 mps 761 mmHg 64%
    11:00 +8°C° 0 mm 9 mps 763 mmHg 64%
    12:00 +10°C° 0 mm 7 mps 764 mmHg 64%
    13:00 +10°C° 0.1 mm 7 mps 764 mmHg 63%
    14:00 +11°C° 0.1 mm 7 mps 765 mmHg 62%
    15:00 +11°C° 0.1 mm 7 mps 766 mmHg 61%
    16:00 +11°C° 0 mm 6 mps 766 mmHg 64%
    17:00 +10°C° 0 mm 5 mps 767 mmHg 67%
    18:00 +9°C° 0 mm 5 mps 767 mmHg 71%
    19:00 +8°C° 0 mm 4 mps 767 mmHg 72%
    20:00 +7°C° 0 mm 4 mps 768 mmHg 73%
    21:00 +7°C° 0 mm 3 mps 768 mmHg 74%
    22:00 +7°C° 0.1 mm 3 mps 768 mmHg 78%
    23:00 +7°C° 0.1 mm 3 mps 768 mmHg 81%

    28 April, Sunday

    Time Temperature Precipitation Wind Pressure Humidity
    00:00 +7°C° 0.1 mm 4 mps 768 mmHg 84%
    01:00 +7°C° 0.1 mm 4 mps 768 mmHg 86%
    02:00 +7°C° 0.1 mm 4 mps 767 mmHg 88%
    03:00 +7°C° 0.1 mm 5 mps 767 mmHg 90%
    04:00 +8°C° 0.1 mm 5 mps 767 mmHg 92%
    05:00 +9°C° 0.1 mm 5 mps 767 mmHg 93%
    06:00 +9°C° 0.1 mm 5 mps 767 mmHg 94%
    07:00 +10°C° 0 mm 5 mps 767 mmHg 93%
    08:00 +12°C° 0 mm 5 mps 767 mmHg 92%
    09:00 +12°C° 0 mm 5 mps 767 mmHg 91%
    10:00 +13°C° 0 mm 5 mps 766 mmHg 90%
    11:00 +13°C° 0 mm 5 mps 766 mmHg 88%
    12:00 +14°C° 0 mm 5 mps 766 mmHg 86%
    13:00 +14°C° 0.1 mm 5 mps 766 mmHg 86%
    14:00 +14°C° 0.1 mm 5 mps 765 mmHg 85%
    15:00 +14°C° 0.1 mm 5 mps 765 mmHg 85%
    16:00 +14°C° 0 mm 4 mps 765 mmHg 86%
    17:00 +14°C° 0 mm 4 mps 765 mmHg 86%
    18:00 +14°C° 0 mm 3 mps 765 mmHg 87%
    19:00 +12°C° 0 mm 4 mps 764 mmHg 89%
    20:00 +11°C° 0 mm 4 mps 764 mmHg 92%
    21:00 +10°C° 0 mm 4 mps 764 mmHg 94%
    22:00 +10°C° 0 mm 4 mps 764 mmHg 94%
    23:00 +8°C° 0 mm 4 mps 763 mmHg 94%
    Show more